Time,TemperatureF,DewpointF,PressureIn,WindDirection,WindDirectionDegrees,WindSpeedMPH,WindSpeedGustMPH,Humidity,HourlyPrecipIn,Conditions,Clouds,dailyrainin,SoftwareType,DateUTC
2013-03-23 00:02:00,52.0,41.0,30.08,South,183,0.0,0.0,65,0.00,,,0.00,,2013-03-23 07:02:00,
2013-03-23 00:11:00,52.0,41.0,30.08,South,183,0.0,0.0,65,0.00,,,0.00,,2013-03-23 07:11:00,
2013-03-23 00:21:00,52.0,41.0,30.08,South,183,0.0,0.0,67,0.00,,,0.00,,2013-03-23 07:21:00,
2013-03-23 00:32:00,51.0,41.0,30.09,South,183,0.0,0.0,68,0.00,,,0.00,,2013-03-23 07:32:00,
2013-03-23 00:41:00,51.0,41.0,30.09,South,183,0.0,0.0,68,0.00,,,0.00,,2013-03-23 07:41:00,
2013-03-23 00:52:00,50.0,41.0,30.09,South,183,0.0,0.0,70,0.00,,,0.00,,2013-03-23 07:52:00,
2013-03-23 01:02:00,51.0,42.0,30.09,South,183,0.0,0.0,70,0.00,,,0.00,,2013-03-23 08:02:00,
2013-03-23 01:12:00,51.0,42.0,30.09,South,183,0.0,0.0,70,0.00,,,0.00,,2013-03-23 08:12:00,
2013-03-23 01:22:00,50.0,41.0,30.09,South,183,0.0,0.0,71,0.00,,,0.00,,2013-03-23 08:22:00,
2013-03-23 01:31:00,51.0,42.0,30.09,South,183,0.0,0.0,71,0.00,,,0.00,,2013-03-23 08:31:00,
2013-03-23 01:41:00,51.0,42.0,30.09,South,183,0.0,0.0,71,0.00,,,0.00,,2013-03-23 08:41:00,
2013-03-23 01:51:00,50.0,41.0,30.09,South,183,0.0,0.0,72,0.00,,,0.00,,2013-03-23 08:51:00,
2013-03-23 02:02:00,50.0,42.0,30.09,South,183,0.0,0.0,73,0.00,,,0.00,,2013-03-23 09:02:00,
2013-03-23 02:21:00,50.0,42.0,30.09,South,183,0.0,0.0,73,0.00,,,0.00,,2013-03-23 09:21:00,
2013-03-23 02:32:00,49.0,40.0,30.09,South,183,0.0,0.0,72,0.00,,,0.00,,2013-03-23 09:32:00,
2013-03-23 02:42:00,49.0,40.0,30.09,South,183,0.0,0.0,72,0.00,,,0.00,,2013-03-23 09:42:00,
2013-03-23 02:52:00,49.0,40.0,30.09,South,183,0.0,0.0,72,0.00,,,0.00,,2013-03-23 09:52:00,
2013-03-23 03:02:00,48.0,40.0,30.09,South,183,0.0,0.0,73,0.00,,,0.00,,2013-03-23 10:02:00,
2013-03-23 03:12:00,48.0,40.0,30.09,South,183,0.0,0.0,73,0.00,,,0.00,,2013-03-23 10:12:00,
2013-03-23 03:23:00,48.0,40.0,30.08,South,183,0.0,0.0,73,0.00,,,0.00,,2013-03-23 10:23:00,
2013-03-23 03:33:00,48.0,40.0,30.08,South,183,0.0,0.0,73,0.00,,,0.00,,2013-03-23 10:33:00,
2013-03-23 03:52:00,47.0,39.0,30.08,South,183,0.0,0.0,73,0.00,,,0.00,,2013-03-23 10:52:00,
2013-03-23 04:02:00,47.0,39.0,30.08,South,183,0.0,0.0,74,0.00,,,0.00,,2013-03-23 11:02:00,
2013-03-23 04:32:00,46.0,39.0,30.08,South,183,0.0,0.0,75,0.00,,,0.00,,2013-03-23 11:32:00,
2013-03-23 04:41:00,46.0,39.0,30.08,South,183,0.0,0.0,75,0.00,,,0.00,,2013-03-23 11:41:00,
2013-03-23 04:52:00,46.0,39.0,30.08,South,183,0.0,0.0,75,0.00,,,0.00,,2013-03-23 11:52:00,
2013-03-23 05:02:00,46.0,39.0,30.07,South,183,0.0,0.0,75,0.00,,,0.00,,2013-03-23 12:02:00,
2013-03-23 05:21:00,46.0,38.0,30.08,South,183,0.0,0.0,74,0.00,,,0.00,,2013-03-23 12:21:00,
2013-03-23 05:32:00,45.0,37.0,30.07,South,183,0.0,0.0,74,0.00,,,0.00,,2013-03-23 12:32:00,
2013-03-23 05:42:00,45.0,37.0,30.07,South,183,0.0,0.0,74,0.00,,,0.00,,2013-03-23 12:42:00,
2013-03-23 05:52:00,45.0,37.0,30.07,South,183,0.0,0.0,73,0.00,,,0.00,,2013-03-23 12:52:00,
2013-03-23 06:01:00,45.0,37.0,30.07,South,183,0.0,0.0,73,0.00,,,0.00,,2013-03-23 13:01:00,
2013-03-23 06:11:00,45.0,37.0,30.07,South,183,0.0,0.0,73,0.00,,,0.00,,2013-03-23 13:11:00,
2013-03-23 06:21:00,45.0,37.0,30.07,South,183,0.0,0.0,73,0.00,,,0.00,,2013-03-23 13:21:00,
2013-03-23 06:31:00,45.0,37.0,30.07,South,183,0.0,0.0,74,0.00,,,0.00,,2013-03-23 13:31:00,
2013-03-23 06:42:00,45.0,37.0,30.07,South,183,0.0,0.0,74,0.00,,,0.00,,2013-03-23 13:42:00,
2013-03-23 06:52:00,44.0,36.0,30.07,South,183,0.0,0.0,74,0.00,,,0.00,,2013-03-23 13:52:00,
2013-03-23 07:02:00,44.0,37.0,30.07,South,183,0.0,0.0,75,0.00,,,0.00,,2013-03-23 14:02:00,
2013-03-23 07:11:00,44.0,37.0,30.07,South,183,0.0,0.0,75,0.00,,,0.00,,2013-03-23 14:11:00,
2013-03-23 07:21:00,44.0,37.0,30.08,South,183,0.0,0.0,76,0.00,,,0.00,,2013-03-23 14:21:00,
2013-03-23 07:32:00,44.0,37.0,30.08,South,183,0.0,0.0,76,0.00,,,0.00,,2013-03-23 14:32:00,
2013-03-23 07:43:00,44.0,37.0,30.08,South,183,0.0,0.0,76,0.00,,,0.00,,2013-03-23 14:43:00,
2013-03-23 07:52:00,44.0,37.0,30.07,South,183,0.0,0.0,77,0.00,,,0.00,,2013-03-23 14:52:00,
2013-03-23 08:02:00,44.0,37.0,30.07,South,183,0.0,0.0,77,0.00,,,0.00,,2013-03-23 15:02:00,
2013-03-23 08:12:00,44.0,37.0,30.07,South,183,0.0,0.0,77,0.00,,,0.00,,2013-03-23 15:12:00,
2013-03-23 08:22:00,45.0,38.0,30.08,South,183,0.0,0.0,77,0.00,,,0.00,,2013-03-23 15:22:00,
2013-03-23 08:33:00,46.0,39.0,30.10,South,183,0.0,0.0,77,0.00,,,0.00,,2013-03-23 15:33:00,
2013-03-23 08:43:00,46.0,39.0,30.10,South,183,0.0,0.0,77,0.00,,,0.00,,2013-03-23 15:43:00,
2013-03-23 08:52:00,47.0,40.0,30.10,South,183,0.0,0.0,77,0.00,,,0.00,,2013-03-23 15:52:00,
2013-03-23 09:03:00,49.0,42.0,30.11,South,183,0.0,0.0,76,0.00,,,0.00,,2013-03-23 16:03:00,
2013-03-23 09:22:00,51.0,41.0,30.11,South,183,0.0,0.0,69,0.00,,,0.00,,2013-03-23 16:22:00,
2013-03-23 09:32:00,52.0,41.0,30.11,South,183,0.0,0.0,66,0.00,,,0.00,,2013-03-23 16:32:00,
2013-03-23 09:43:00,52.0,41.0,30.11,South,183,0.0,0.0,66,0.00,,,0.00,,2013-03-23 16:43:00,
2013-03-23 09:53:00,52.0,41.0,30.11,South,183,0.0,0.0,65,0.00,,,0.00,,2013-03-23 16:53:00,
2013-03-23 10:02:00,52.0,41.0,30.11,South,183,0.0,0.0,65,0.00,,,0.00,,2013-03-23 17:02:00,
2013-03-23 10:11:00,53.0,42.0,30.11,South,183,0.0,0.0,65,0.00,,,0.00,,2013-03-23 17:11:00,
2013-03-23 10:21:00,53.0,42.0,30.11,South,183,0.0,0.0,65,0.00,,,0.00,,2013-03-23 17:21:00,
2013-03-23 10:31:00,53.0,41.0,30.10,South,183,0.0,0.0,63,0.00,,,0.00,,2013-03-23 17:31:00,
2013-03-23 10:42:00,53.0,41.0,30.10,South,183,0.0,0.0,63,0.00,,,0.00,,2013-03-23 17:42:00,
2013-03-23 10:52:00,54.0,41.0,30.09,South,183,0.0,0.0,61,0.00,,,0.00,,2013-03-23 17:52:00,
2013-03-23 11:02:00,55.0,41.0,30.09,South,183,0.0,0.0,59,0.00,,,0.00,,2013-03-23 18:02:00,
2013-03-23 11:11:00,55.0,41.0,30.09,South,183,0.0,0.0,59,0.00,,,0.00,,2013-03-23 18:11:00,
2013-03-23 11:21:00,56.0,40.0,30.09,South,183,0.0,0.0,55,0.00,,,0.00,,2013-03-23 18:21:00,
2013-03-23 11:32:00,57.0,39.0,30.09,SW,233,3.0,0.0,51,0.00,,,0.00,,2013-03-23 18:32:00,
2013-03-23 11:41:00,57.0,39.0,30.09,SW,233,3.0,0.0,51,0.00,,,0.00,,2013-03-23 18:41:00,
2013-03-23 11:52:00,59.0,39.0,30.09,North,353,0.0,0.0,48,0.00,,,0.00,,2013-03-23 18:52:00,
2013-03-23 12:02:00,60.0,40.0,30.09,NW,307,0.0,3.0,47,0.00,,,0.00,,2013-03-23 19:02:00,
2013-03-23 12:11:00,60.0,40.0,30.09,NW,307,0.0,3.0,47,0.00,,,0.00,,2013-03-23 19:11:00,
2013-03-23 12:21:00,62.0,37.0,30.09,NNE,14,0.0,4.0,40,0.00,,,0.00,,2013-03-23 19:21:00,
2013-03-23 12:32:00,63.0,36.0,30.08,WNW,288,3.0,0.0,37,0.00,,,0.00,,2013-03-23 19:32:00,
2013-03-23 12:42:00,63.0,36.0,30.08,WNW,288,3.0,0.0,37,0.00,,,0.00,,2013-03-23 19:42:00,
2013-03-23 12:52:00,65.0,33.0,30.07,North,359,5.0,6.0,30,0.00,,,0.00,,2013-03-23 19:52:00,
2013-03-23 13:02:00,65.0,33.0,30.07,North,359,5.0,6.0,30,0.00,,,0.00,,2013-03-23 20:02:00,
2013-03-23 13:12:00,65.0,33.0,30.07,North,359,5.0,6.0,30,0.00,,,0.00,,2013-03-23 20:12:00,
2013-03-23 13:22:00,67.0,32.0,30.05,NW,321,3.0,4.0,27,0.00,,,0.00,,2013-03-23 20:22:00,
2013-03-23 13:32:00,68.0,33.0,30.06,NW,314,7.0,7.0,27,0.00,,,0.00,,2013-03-23 20:32:00,
2013-03-23 13:43:00,68.0,33.0,30.06,NW,314,7.0,7.0,27,0.00,,,0.00,,2013-03-23 20:43:00,
2013-03-23 13:52:00,68.0,32.0,30.06,NW,308,5.0,6.0,26,0.00,,,0.00,,2013-03-23 20:52:00,
2013-03-23 14:01:00,68.0,39.0,30.05,WNW,295,7.0,7.0,35,0.00,,,0.00,,2013-03-23 21:01:00,
2013-03-23 14:11:00,68.0,39.0,30.05,WNW,295,7.0,7.0,35,0.00,,,0.00,,2013-03-23 21:11:00,
2013-03-23 14:21:00,68.0,39.0,30.04,West,267,9.0,10.0,35,0.00,,,0.00,,2013-03-23 21:21:00,
2013-03-23 14:32:00,67.0,41.0,30.04,West,276,8.0,10.0,39,0.00,,,0.00,,2013-03-23 21:32:00,
2013-03-23 14:42:00,67.0,41.0,30.04,West,276,8.0,10.0,39,0.00,,,0.00,,2013-03-23 21:42:00,
2013-03-23 14:53:00,67.0,41.0,30.04,West,276,8.0,10.0,39,0.00,,,0.00,,2013-03-23 21:53:00,
2013-03-23 15:02:00,67.0,41.0,30.04,West,276,8.0,10.0,39,0.00,,,0.00,,2013-03-23 22:02:00,
2013-03-23 15:12:00,67.0,41.0,30.04,West,276,8.0,10.0,39,0.00,,,0.00,,2013-03-23 22:12:00,
2013-03-23 15:23:00,64.0,43.0,30.03,SW,231,6.0,10.0,47,0.00,,,0.00,,2013-03-23 22:23:00,
2013-03-23 15:33:00,63.0,41.0,30.03,WSW,245,10.0,10.0,45,0.00,,,0.00,,2013-03-23 22:33:00,
2013-03-23 15:42:00,63.0,41.0,30.03,WSW,245,10.0,10.0,45,0.00,,,0.00,,2013-03-23 22:42:00,
2013-03-23 15:53:00,63.0,42.0,30.04,West,263,8.0,14.0,47,0.00,,,0.00,,2013-03-23 22:53:00,
2013-03-23 16:01:00,63.0,44.0,30.04,WSW,238,6.0,6.0,50,0.00,,,0.00,,2013-03-23 23:01:00,
2013-03-23 16:12:00,63.0,44.0,30.04,WSW,238,6.0,6.0,50,0.00,,,0.00,,2013-03-23 23:12:00,
2013-03-23 16:22:00,62.0,45.0,30.05,WSW,257,8.0,10.0,53,0.00,,,0.00,,2013-03-23 23:22:00,
2013-03-23 16:32:00,61.0,46.0,30.06,West,269,3.0,5.0,58,0.00,,,0.00,,2013-03-23 23:32:00,
2013-03-23 16:42:00,61.0,46.0,30.06,West,269,3.0,5.0,58,0.00,,,0.00,,2013-03-23 23:42:00,
2013-03-23 16:52:00,61.0,46.0,30.06,West,269,3.0,5.0,58,0.00,,,0.00,,2013-03-23 23:52:00,
2013-03-23 17:01:00,61.0,47.0,30.05,West,270,1.0,3.0,59,0.00,,,0.00,,2013-03-24 00:01:00,
2013-03-23 17:11:00,61.0,47.0,30.05,West,270,1.0,3.0,59,0.00,,,0.00,,2013-03-24 00:11:00,
2013-03-23 17:22:00,60.0,46.0,30.04,West,269,6.0,8.0,59,0.00,,,0.00,,2013-03-24 00:22:00,
2013-03-23 17:32:00,60.0,46.0,30.04,WSW,257,4.0,7.0,59,0.00,,,0.00,,2013-03-24 00:32:00,
2013-03-23 17:41:00,60.0,46.0,30.04,WSW,257,4.0,7.0,59,0.00,,,0.00,,2013-03-24 00:41:00,
2013-03-23 17:52:00,59.0,45.0,30.04,WNW,285,4.0,5.0,60,0.00,,,0.00,,2013-03-24 00:52:00,
2013-03-23 18:01:00,59.0,45.0,30.04,WSW,249,6.0,7.0,59,0.00,,,0.00,,2013-03-24 01:01:00,
2013-03-23 18:11:00,59.0,45.0,30.04,WSW,249,6.0,7.0,59,0.00,,,0.00,,2013-03-24 01:11:00,
2013-03-23 18:21:00,59.0,44.0,30.04,SW,219,7.0,7.0,58,0.00,,,0.00,,2013-03-24 01:21:00,
2013-03-23 18:32:00,59.0,45.0,30.05,West,259,3.0,6.0,59,0.00,,,0.00,,2013-03-24 01:32:00,
2013-03-23 18:52:00,58.0,44.0,30.05,WSW,253,0.0,0.0,59,0.00,,,0.00,,2013-03-24 01:52:00,
2013-03-23 19:02:00,58.0,44.0,30.05,WSW,240,5.0,5.0,59,0.00,,,0.00,,2013-03-24 02:02:00,
2013-03-23 19:12:00,58.0,44.0,30.05,WSW,240,5.0,5.0,59,0.00,,,0.00,,2013-03-24 02:12:00,
2013-03-23 19:21:00,57.0,40.0,30.05,SSW,203,3.0,0.0,53,0.00,,,0.00,,2013-03-24 02:21:00,
2013-03-23 19:31:00,56.0,43.0,30.05,WSW,249,2.0,6.0,62,0.00,,,0.00,,2013-03-24 02:31:00,
2013-03-23 19:42:00,56.0,43.0,30.05,WSW,249,2.0,6.0,62,0.00,,,0.00,,2013-03-24 02:42:00,
2013-03-23 19:52:00,56.0,43.0,30.05,WSW,249,2.0,6.0,62,0.00,,,0.00,,2013-03-24 02:52:00,
2013-03-23 20:01:00,55.0,43.0,30.06,SW,219,0.0,0.0,63,0.00,,,0.00,,2013-03-24 03:01:00,
2013-03-23 20:22:00,55.0,43.0,30.06,SW,226,0.0,0.0,63,0.00,,,0.00,,2013-03-24 03:22:00,
2013-03-23 20:32:00,55.0,43.0,30.06,SW,226,0.0,0.0,63,0.00,,,0.00,,2013-03-24 03:32:00,
2013-03-23 20:42:00,55.0,43.0,30.06,SW,226,0.0,0.0,63,0.00,,,0.00,,2013-03-24 03:42:00,
2013-03-23 20:52:00,55.0,43.0,30.06,SW,226,0.0,0.0,63,0.00,,,0.00,,2013-03-24 03:52:00,
2013-03-23 21:02:00,55.0,43.0,30.06,SW,226,0.0,0.0,63,0.00,,,0.00,,2013-03-24 04:02:00,
2013-03-23 21:12:00,55.0,43.0,30.06,SW,226,0.0,0.0,63,0.00,,,0.00,,2013-03-24 04:12:00,
2013-03-23 21:22:00,55.0,43.0,30.08,SW,226,0.0,0.0,65,0.00,,,0.00,,2013-03-24 04:22:00,
2013-03-23 21:33:00,55.0,43.0,30.08,SW,226,0.0,0.0,65,0.00,,,0.00,,2013-03-24 04:33:00,
2013-03-23 21:43:00,55.0,43.0,30.08,SW,226,0.0,0.0,65,0.00,,,0.00,,2013-03-24 04:43:00,
2013-03-23 21:52:00,55.0,44.0,30.08,SW,226,0.0,0.0,66,0.00,,,0.00,,2013-03-24 04:52:00,
2013-03-23 22:02:00,54.0,43.0,30.08,SW,226,0.0,0.0,66,0.00,,,0.00,,2013-03-24 05:02:00,
2013-03-23 22:11:00,54.0,43.0,30.08,SW,226,0.0,0.0,66,0.00,,,0.00,,2013-03-24 05:11:00,
2013-03-23 22:22:00,54.0,43.0,30.08,SW,226,0.0,0.0,66,0.00,,,0.00,,2013-03-24 05:22:00,
2013-03-23 22:32:00,54.0,43.0,30.08,SW,226,0.0,0.0,66,0.00,,,0.00,,2013-03-24 05:32:00,
2013-03-23 22:41:00,54.0,43.0,30.08,SW,226,0.0,0.0,66,0.00,,,0.00,,2013-03-24 05:41:00,
2013-03-23 22:52:00,54.0,43.0,30.08,SW,226,0.0,0.0,66,0.00,,,0.00,,2013-03-24 05:52:00,
2013-03-23 23:02:00,54.0,43.0,30.08,SW,226,0.0,0.0,66,0.00,,,0.00,,2013-03-24 06:02:00,
2013-03-23 23:22:00,52.0,42.0,30.08,North,354,0.0,0.0,69,0.00,,,0.00,,2013-03-24 06:22:00,
2013-03-23 23:32:00,52.0,42.0,30.08,North,354,0.0,0.0,69,0.00,,,0.00,,2013-03-24 06:32:00,
2013-03-23 23:42:00,52.0,42.0,30.08,North,354,0.0,0.0,69,0.00,,,0.00,,2013-03-24 06:42:00,
2013-03-23 23:52:00,52.0,43.0,30.08,North,354,0.0,0.0,70,0.00,,,0.00,,2013-03-24 06:52:00,